UAL1294 KDEN-KPSP

Flight info

Callsign UAL1294
Flight time 2h 3m
Altitude 30000
Route BAYLR6 TEHRU PLNDL Q86 YORRK RDBUL1
Aircraft A320/M-SDE3FGHIRWY/LB1

Departure

Time 2026-05-05 00:41
Airport Denver International Airport (KDEN)

Arrival

Time 2026-05-05 02:44
Airport Palm Springs International Airport (KPSP)
Time Latitude Longitude Altitude Speed Heading
2026-05-05 00:10 39.85804 -104.67679 5385 ft 0 kts 360°
2026-05-05 00:29 39.85786 -104.67679 5384 ft 4 kts 360°
2026-05-05 00:30 39.85758 -104.67679 5384 ft 4 kts 360°
2026-05-05 00:30 39.85731 -104.67679 5385 ft 4 kts 360°
2026-05-05 00:30 39.85726 -104.67679 5385 ft 0 kts 360°
2026-05-05 00:33 39.85727 -104.67680 5385 ft 1 kts 342°
2026-05-05 00:33 39.85735 -104.67697 5386 ft 4 kts 295°
2026-05-05 00:34 39.85738 -104.67748 5386 ft 7 kts 267°
2026-05-05 00:34 39.85735 -104.67810 5386 ft 7 kts 267°
2026-05-05 00:34 39.85733 -104.67880 5386 ft 8 kts 270°
2026-05-05 00:34 39.85734 -104.67958 5382 ft 9 kts 271°
2026-05-05 00:35 39.85731 -104.67985 5386 ft 1 kts 259°
2026-05-05 00:35 39.85715 -104.68020 5385 ft 9 kts 225°
2026-05-05 00:35 39.85669 -104.68109 5386 ft 13 kts 265°
2026-05-05 00:35 39.85626 -104.68208 5383 ft 14 kts 212°
2026-05-05 00:36 39.85599 -104.68330 5377 ft 17 kts 273°
2026-05-05 00:36 39.85519 -104.68404 5373 ft 17 kts 176°
2026-05-05 00:36 39.85403 -104.68404 5374 ft 17 kts 181°
2026-05-05 00:36 39.85288 -104.68406 5373 ft 13 kts 180°
2026-05-05 00:37 39.85234 -104.68411 5375 ft 6 kts 198°
2026-05-05 00:37 39.85208 -104.68485 5373 ft 15 kts 267°
2026-05-05 00:37 39.85205 -104.68639 5366 ft 19 kts 270°
2026-05-05 00:37 39.85202 -104.68831 5359 ft 23 kts 268°
2026-05-05 00:38 39.85199 -104.69022 5352 ft 22 kts 266°
2026-05-05 00:38 39.85199 -104.69241 5346 ft 26 kts 271°
2026-05-05 00:38 39.85203 -104.69411 5338 ft 15 kts 269°
2026-05-05 00:38 39.85203 -104.69487 5339 ft 6 kts 270°
2026-05-05 00:39 39.85203 -104.69507 5338 ft 4 kts 270°
2026-05-05 00:39 39.85203 -104.69564 5333 ft 9 kts 270°
2026-05-05 00:39 39.85225 -104.69648 5336 ft 12 kts 318°
2026-05-05 00:39 39.85323 -104.69658 5335 ft 22 kts
2026-05-05 00:40 39.85696 -104.69654 5341 ft 85 kts
2026-05-05 00:40 39.86475 -104.69647 5330 ft 137 kts 360°
2026-05-05 00:40 39.87573 -104.69637 5363 ft 176 kts 359°
2026-05-05 00:40 39.88836 -104.69655 5926 ft 186 kts 352°
2026-05-05 00:41 39.90092 -104.70187 6535 ft 198 kts 328°
2026-05-05 00:41 39.91053 -104.71509 7125 ft 207 kts 300°
2026-05-05 00:41 39.91408 -104.73321 7671 ft 211 kts 271°
2026-05-05 00:41 39.91029 -104.75231 7911 ft 233 kts 239°
2026-05-05 00:42 39.89859 -104.76816 8078 ft 255 kts 223°
2026-05-05 00:42 39.88450 -104.78382 8297 ft 280 kts 221°
2026-05-05 00:42 39.86909 -104.80067 8791 ft 292 kts 221°
2026-05-05 00:42 39.85329 -104.81792 9444 ft 299 kts 220°
2026-05-05 00:43 39.83726 -104.83546 9894 ft 303 kts 220°
2026-05-05 00:43 39.82115 -104.85318 9987 ft 310 kts 220°
2026-05-05 00:43 39.80413 -104.87201 9995 ft 328 kts 220°
2026-05-05 00:43 39.78651 -104.89164 9995 ft 336 kts 223°
2026-05-05 00:44 39.77268 -104.91634 10045 ft 345 kts 248°
2026-05-05 00:44 39.76484 -104.94583 10689 ft 346 kts 253°
2026-05-05 00:44 39.75815 -104.97576 11441 ft 344 kts 255°
2026-05-05 00:44 39.75194 -105.00584 12221 ft 343 kts 256°
2026-05-05 00:45 39.74501 -105.03550 12945 ft 344 kts 249°
2026-05-05 00:45 39.73610 -105.06444 13608 ft 346 kts 249°
2026-05-05 00:45 39.72689 -105.09333 14249 ft 347 kts 249°
2026-05-05 00:45 39.71747 -105.12228 14824 ft 349 kts 248°
2026-05-05 00:46 39.70787 -105.15133 15386 ft 351 kts 248°
2026-05-05 00:46 39.69817 -105.18046 15939 ft 353 kts 248°
2026-05-05 00:46 39.68844 -105.20978 16482 ft 354 kts 248°
2026-05-05 00:46 39.67873 -105.23926 17070 ft 356 kts 248°
2026-05-05 00:47 39.66902 -105.26885 17668 ft 357 kts 248°
2026-05-05 00:47 39.65913 -105.29898 18255 ft 359 kts 248°
2026-05-05 00:47 39.64930 -105.32880 18772 ft 361 kts 248°
2026-05-05 00:47 39.63950 -105.35841 19272 ft 363 kts 248°
2026-05-05 00:48 39.62949 -105.38866 19788 ft 366 kts 248°
2026-05-05 00:48 39.61943 -105.41913 20314 ft 369 kts 248°
2026-05-05 00:48 39.60929 -105.44980 20816 ft 371 kts 248°
2026-05-05 00:48 39.59894 -105.48104 21324 ft 374 kts 248°
2026-05-05 00:49 39.58876 -105.51169 21799 ft 376 kts 249°
2026-05-05 00:49 39.57837 -105.54296 22276 ft 379 kts 249°
2026-05-05 00:49 39.56790 -105.57439 22731 ft 381 kts 249°
2026-05-05 00:49 39.55723 -105.60643 23190 ft 384 kts 249°
2026-05-05 00:50 39.54692 -105.63849 23626 ft 386 kts 251°
2026-05-05 00:50 39.53748 -105.67102 24005 ft 387 kts 252°
2026-05-05 00:50 39.52854 -105.70400 24413 ft 388 kts 253°
2026-05-05 00:50 39.51980 -105.73714 24810 ft 389 kts 253°
2026-05-05 00:51 39.51104 -105.77031 25190 ft 390 kts 253°
2026-05-05 00:51 39.50209 -105.80358 25565 ft 392 kts 252°
2026-05-05 00:51 39.49296 -105.83686 25928 ft 393 kts 252°
2026-05-05 00:51 39.48369 -105.87020 26281 ft 394 kts 252°
2026-05-05 00:52 39.47433 -105.90363 26634 ft 396 kts 252°
2026-05-05 00:52 39.46491 -105.93722 27017 ft 397 kts 252°
2026-05-05 00:52 39.45549 -105.97084 27379 ft 398 kts 252°
2026-05-05 00:52 39.44602 -106.00458 27709 ft 400 kts 252°
2026-05-05 00:53 39.43652 -106.03843 28053 ft 402 kts 252°
2026-05-05 00:53 39.42696 -106.07245 28404 ft 403 kts 252°
2026-05-05 00:53 39.41738 -106.10654 28718 ft 404 kts 252°
2026-05-05 00:53 39.40773 -106.14076 29049 ft 405 kts 252°
2026-05-05 00:54 39.39809 -106.17490 29541 ft 403 kts 252°
2026-05-05 00:54 39.38849 -106.20893 29822 ft 402 kts 252°
2026-05-05 00:54 39.37898 -106.24265 29863 ft 397 kts 252°
2026-05-05 00:54 39.36956 -106.27600 30062 ft 394 kts 252°
2026-05-05 00:55 39.36017 -106.30921 30063 ft 393 kts 252°
2026-05-05 00:55 39.34144 -106.37546 30073 ft 393 kts 252°
2026-05-05 00:56 39.32256 -106.44176 30062 ft 393 kts 252°
2026-05-05 00:56 39.30362 -106.50798 30043 ft 393 kts 252°
2026-05-05 00:57 39.28468 -106.57420 30007 ft 393 kts 252°
2026-05-05 00:57 39.26576 -106.64039 29954 ft 393 kts 253°
2026-05-05 00:58 39.25003 -106.69516 29987 ft 392 kts 252°
2026-05-05 00:58 39.22150 -106.75552 30016 ft 399 kts 236°
2026-05-05 00:59 39.18710 -106.81157 30023 ft 398 kts 236°
2026-05-05 00:59 39.15289 -106.86758 30020 ft 397 kts 236°
2026-05-05 01:00 39.11876 -106.92355 29918 ft 397 kts 237°
2026-05-05 01:00 39.08462 -106.97921 29915 ft 396 kts 236°
2026-05-05 01:01 39.05032 -107.03492 29918 ft 397 kts 236°
2026-05-05 01:01 39.01602 -107.09060 29910 ft 397 kts 236°
2026-05-05 01:02 38.98177 -107.14617 29913 ft 396 kts 236°
2026-05-05 01:02 38.94762 -107.20152 29895 ft 394 kts 237°
2026-05-05 01:03 38.91372 -107.25626 29910 ft 391 kts 237°
2026-05-05 01:03 38.87998 -107.31065 29907 ft 389 kts 237°
2026-05-05 01:04 38.84640 -107.36477 29878 ft 385 kts 237°
2026-05-05 01:04 38.79626 -107.44542 29880 ft 385 kts 237°
2026-05-05 01:05 38.76289 -107.49888 29845 ft 383 kts 237°
2026-05-05 01:05 38.72961 -107.55218 29841 ft 383 kts 237°
2026-05-05 01:06 38.69613 -107.60566 29854 ft 382 kts 237°
2026-05-05 01:06 38.66284 -107.65866 29812 ft 380 kts 237°
2026-05-05 01:07 38.62994 -107.71109 29827 ft 376 kts 237°
2026-05-05 01:07 38.59727 -107.76307 29788 ft 374 kts 237°
2026-05-05 01:08 38.56480 -107.81462 29947 ft 372 kts 237°
2026-05-05 01:08 38.53242 -107.86601 29950 ft 371 kts 237°
2026-05-05 01:09 38.50009 -107.91724 29947 ft 371 kts 237°
2026-05-05 01:09 38.46768 -107.96836 29948 ft 370 kts 237°
2026-05-05 01:10 38.43529 -108.01950 29925 ft 370 kts 237°
2026-05-05 01:10 38.40292 -108.07060 29902 ft 371 kts 237°
2026-05-05 01:11 38.37051 -108.12160 29850 ft 369 kts 237°
2026-05-05 01:11 38.33820 -108.17222 29860 ft 367 kts 237°
2026-05-05 01:12 38.30618 -108.22240 29840 ft 365 kts 237°
2026-05-05 01:12 38.27422 -108.27243 29838 ft 363 kts 237°
2026-05-05 01:13 38.24239 -108.32221 29830 ft 362 kts 237°
2026-05-05 01:13 38.21059 -108.37188 29824 ft 362 kts 237°
2026-05-05 01:14 38.17879 -108.42137 29831 ft 361 kts 237°
2026-05-05 01:14 38.14699 -108.47089 29809 ft 362 kts 237°
2026-05-05 01:15 38.11522 -108.52038 29809 ft 361 kts 237°
2026-05-05 01:15 38.08340 -108.56984 29801 ft 362 kts 237°
2026-05-05 01:16 38.05159 -108.61914 29821 ft 360 kts 237°
2026-05-05 01:16 38.01986 -108.66811 29831 ft 358 kts 237°
2026-05-05 01:17 37.98825 -108.71684 29819 ft 357 kts 237°
2026-05-05 01:17 37.95676 -108.76542 29834 ft 356 kts 237°
2026-05-05 01:18 37.92521 -108.81387 29827 ft 356 kts 236°
2026-05-05 01:18 37.89365 -108.86232 29823 ft 356 kts 236°
2026-05-05 01:19 37.86215 -108.91075 29822 ft 356 kts 236°
2026-05-05 01:19 37.83066 -108.95908 29825 ft 356 kts 236°
2026-05-05 01:20 37.79916 -109.00730 29822 ft 355 kts 236°
2026-05-05 01:20 37.76769 -109.05551 29790 ft 355 kts 236°
2026-05-05 01:21 37.73624 -109.10346 29820 ft 354 kts 236°
2026-05-05 01:21 37.70477 -109.15124 29843 ft 353 kts 236°
2026-05-05 01:22 37.67348 -109.19889 29867 ft 352 kts 236°
2026-05-05 01:22 37.64223 -109.24644 29888 ft 352 kts 236°
2026-05-05 01:23 37.61101 -109.29379 29907 ft 351 kts 236°
2026-05-05 01:23 37.57980 -109.34110 29927 ft 351 kts 236°
2026-05-05 01:24 37.54854 -109.38836 29938 ft 351 kts 236°
2026-05-05 01:24 37.51732 -109.43558 29929 ft 350 kts 236°
2026-05-05 01:25 37.48606 -109.48268 29925 ft 350 kts 236°
2026-05-05 01:25 37.45476 -109.52971 29886 ft 350 kts 234°
2026-05-05 01:26 37.42355 -109.57661 29862 ft 350 kts 234°
2026-05-05 01:26 37.39231 -109.62350 29842 ft 349 kts 234°
2026-05-05 01:27 37.36114 -109.67034 29812 ft 349 kts 234°
2026-05-05 01:27 37.32999 -109.71709 29755 ft 349 kts 234°
2026-05-05 01:28 37.29881 -109.76377 29759 ft 349 kts 234°
2026-05-05 01:28 37.26757 -109.81037 29756 ft 349 kts 234°
2026-05-05 01:29 37.23634 -109.85693 29761 ft 348 kts 234°
2026-05-05 01:29 37.20516 -109.90340 29757 ft 348 kts 234°
2026-05-05 01:30 37.17395 -109.94983 29750 ft 348 kts 234°
2026-05-05 01:30 37.14268 -109.99625 29722 ft 348 kts 233°
2026-05-05 01:31 37.11139 -110.04269 29732 ft 349 kts 233°
2026-05-05 01:31 37.08005 -110.08911 29732 ft 349 kts 233°
2026-05-05 01:32 37.04868 -110.13557 29738 ft 349 kts 233°
2026-05-05 01:32 37.01724 -110.18198 29728 ft 350 kts 233°
2026-05-05 01:33 36.98575 -110.22833 29738 ft 350 kts 233°
2026-05-05 01:33 36.95417 -110.27467 29744 ft 350 kts 233°
2026-05-05 01:34 36.92266 -110.32109 29738 ft 350 kts 233°
2026-05-05 01:34 36.89111 -110.36746 29755 ft 350 kts 233°
2026-05-05 01:35 36.85951 -110.41373 29755 ft 350 kts 232°
2026-05-05 01:35 36.82787 -110.46008 29731 ft 352 kts 232°
2026-05-05 01:36 36.79618 -110.50655 29774 ft 351 kts 232°
2026-05-05 01:36 36.76961 -110.54530 29775 ft 350 kts 232°
2026-05-05 01:37 36.73791 -110.59142 29774 ft 350 kts 232°
2026-05-05 01:37 36.70631 -110.63754 29770 ft 349 kts 232°
2026-05-05 01:38 36.67471 -110.68356 29771 ft 349 kts 232°
2026-05-05 01:38 36.64309 -110.72946 29768 ft 349 kts 232°
2026-05-05 01:39 36.61152 -110.77532 29762 ft 349 kts 232°
2026-05-05 01:39 36.57990 -110.82114 29779 ft 349 kts 231°
2026-05-05 01:40 36.54834 -110.86681 29781 ft 348 kts 231°
2026-05-05 01:40 36.51679 -110.91231 29784 ft 347 kts 231°
2026-05-05 01:41 36.48531 -110.95771 29786 ft 346 kts 231°
2026-05-05 01:41 36.45386 -111.00303 29777 ft 347 kts 231°
2026-05-05 01:42 36.42238 -111.04836 29785 ft 346 kts 231°
2026-05-05 01:42 36.39092 -111.09358 29789 ft 346 kts 231°
2026-05-05 01:43 36.35940 -111.13875 29793 ft 346 kts 231°
2026-05-05 01:43 36.32794 -111.18383 29822 ft 345 kts 232°
2026-05-05 01:44 36.29659 -111.22872 29824 ft 344 kts 232°
2026-05-05 01:44 36.26530 -111.27351 29818 ft 343 kts 232°
2026-05-05 01:45 36.23402 -111.31813 29780 ft 343 kts 231°
2026-05-05 01:45 36.20265 -111.36280 29777 ft 344 kts 231°
2026-05-05 01:46 36.17115 -111.40759 29779 ft 345 kts 231°
2026-05-05 01:46 36.13958 -111.45241 29783 ft 346 kts 230°
2026-05-05 01:47 36.10791 -111.49732 29795 ft 347 kts 231°
2026-05-05 01:47 36.07619 -111.54228 29809 ft 347 kts 231°
2026-05-05 01:48 36.04452 -111.58719 29817 ft 347 kts 230°
2026-05-05 01:48 36.01273 -111.63205 29819 ft 347 kts 230°
2026-05-05 01:49 35.98098 -111.67692 29822 ft 347 kts 230°
2026-05-05 01:49 35.94918 -111.72187 29836 ft 347 kts 230°
2026-05-05 01:50 35.91738 -111.76671 29845 ft 347 kts 230°
2026-05-05 01:50 35.88546 -111.81148 29864 ft 348 kts 230°
2026-05-05 01:51 35.85343 -111.85640 29943 ft 349 kts 230°
2026-05-05 01:51 35.82573 -111.90536 29976 ft 350 kts 239°
2026-05-05 01:52 35.80214 -111.95785 30009 ft 350 kts 239°
2026-05-05 01:52 35.77845 -112.01022 30027 ft 350 kts 239°
2026-05-05 01:53 35.75477 -112.06257 30028 ft 350 kts 239°
2026-05-05 01:53 35.73102 -112.11483 30014 ft 350 kts 239°
2026-05-05 01:54 35.70698 -112.16653 30015 ft 344 kts 238°
2026-05-05 01:54 35.68306 -112.21715 29988 ft 341 kts 238°
2026-05-05 01:55 35.65925 -112.26752 29958 ft 340 kts 238°
2026-05-05 01:55 35.63552 -112.31787 29927 ft 340 kts 238°
2026-05-05 01:56 35.61181 -112.36815 29895 ft 340 kts 238°
2026-05-05 01:56 35.58820 -112.41843 29895 ft 340 kts 239°
2026-05-05 01:57 35.56480 -112.46879 29918 ft 338 kts 239°
2026-05-05 01:57 35.54166 -112.51851 29891 ft 334 kts 239°
2026-05-05 01:58 35.51862 -112.56790 29852 ft 334 kts 238°
2026-05-05 01:58 35.49544 -112.61736 29848 ft 335 kts 238°
2026-05-05 01:59 35.47203 -112.66731 29852 ft 335 kts 238°
2026-05-05 01:59 35.44871 -112.71689 29854 ft 336 kts 238°
2026-05-05 02:00 35.42537 -112.76656 29856 ft 336 kts 238°
2026-05-05 02:00 35.40207 -112.81614 29891 ft 334 kts 238°
2026-05-05 02:01 35.37895 -112.86527 29890 ft 332 kts 238°
2026-05-05 02:01 35.35594 -112.91405 29885 ft 330 kts 238°
2026-05-05 02:02 35.33299 -112.96254 29882 ft 329 kts 238°
2026-05-05 02:02 35.31005 -113.01091 29878 ft 328 kts 238°
2026-05-05 02:03 35.28721 -113.05920 29864 ft 327 kts 238°
2026-05-05 02:03 35.26439 -113.10735 29872 ft 327 kts 238°
2026-05-05 02:04 35.24152 -113.15542 29866 ft 327 kts 238°
2026-05-05 02:04 35.21862 -113.20347 29864 ft 327 kts 238°
2026-05-05 02:05 35.19573 -113.25147 29845 ft 326 kts 238°
2026-05-05 02:05 35.17287 -113.29949 29842 ft 327 kts 238°
2026-05-05 02:06 35.14995 -113.34743 29838 ft 327 kts 238°
2026-05-05 02:06 35.12700 -113.39527 29807 ft 326 kts 237°
2026-05-05 02:07 35.10407 -113.44317 29852 ft 327 kts 237°
2026-05-05 02:07 35.08105 -113.49108 29833 ft 327 kts 237°
2026-05-05 02:08 35.05805 -113.53899 29817 ft 328 kts 237°
2026-05-05 02:08 35.03497 -113.58698 29822 ft 328 kts 237°
2026-05-05 02:09 35.01184 -113.63490 29819 ft 328 kts 237°
2026-05-05 02:09 34.98869 -113.68283 29817 ft 328 kts 237°
2026-05-05 02:10 34.96559 -113.73068 29814 ft 328 kts 237°
2026-05-05 02:10 34.94242 -113.77857 29815 ft 328 kts 237°
2026-05-05 02:11 34.91920 -113.82645 29801 ft 329 kts 237°
2026-05-05 02:11 34.89583 -113.87457 29796 ft 331 kts 237°
2026-05-05 02:12 34.85737 -113.94415 29804 ft 332 kts 225°
2026-05-05 02:13 34.82322 -113.98202 29806 ft 332 kts 224°
2026-05-05 02:13 34.78910 -114.02003 29798 ft 333 kts 224°
2026-05-05 02:14 34.76046 -114.05191 29790 ft 333 kts 224°
2026-05-05 02:14 34.72634 -114.08986 29848 ft 332 kts 224°
2026-05-05 02:15 34.69197 -114.12798 29845 ft 340 kts 224°
2026-05-05 02:15 34.65676 -114.16691 29849 ft 344 kts 224°
2026-05-05 02:16 34.62180 -114.20640 29640 ft 340 kts 228°
2026-05-05 02:16 34.60643 -114.22775 28682 ft 333 kts 229°
2026-05-05 02:16 34.59134 -114.24892 27521 ft 333 kts 229°
2026-05-05 02:16 34.57618 -114.27022 27067 ft 329 kts 230°
2026-05-05 02:17 34.56136 -114.29096 26810 ft 321 kts 230°
2026-05-05 02:17 34.54686 -114.31121 26558 ft 316 kts 230°
2026-05-05 02:17 34.53246 -114.33129 26286 ft 314 kts 230°
2026-05-05 02:17 34.51818 -114.35122 26113 ft 314 kts 230°
2026-05-05 02:18 34.50384 -114.37125 25991 ft 315 kts 230°
2026-05-05 02:18 34.48947 -114.39128 25839 ft 315 kts 230°
2026-05-05 02:18 34.47506 -114.41133 25717 ft 315 kts 230°
2026-05-05 02:18 34.46068 -114.43131 25595 ft 315 kts 230°
2026-05-05 02:19 34.44621 -114.45136 25475 ft 316 kts 230°
2026-05-05 02:19 34.43175 -114.47134 25337 ft 315 kts 229°
2026-05-05 02:19 34.41729 -114.49134 25216 ft 315 kts 229°
2026-05-05 02:19 34.40287 -114.51133 25098 ft 315 kts 230°
2026-05-05 02:20 34.38844 -114.53138 24977 ft 316 kts 230°
2026-05-05 02:20 34.37398 -114.55141 24862 ft 316 kts 230°
2026-05-05 02:20 34.35953 -114.57142 24753 ft 316 kts 230°
2026-05-05 02:20 34.34503 -114.59143 24636 ft 316 kts 230°
2026-05-05 02:21 34.33050 -114.61146 24518 ft 317 kts 230°
2026-05-05 02:21 34.31600 -114.63152 24406 ft 317 kts 230°
2026-05-05 02:21 34.30152 -114.65160 24286 ft 317 kts 230°
2026-05-05 02:21 34.28699 -114.67171 24173 ft 317 kts 230°
2026-05-05 02:22 34.27246 -114.69177 24061 ft 318 kts 230°
2026-05-05 02:22 34.25788 -114.71187 23944 ft 317 kts 230°
2026-05-05 02:22 34.24336 -114.73190 23926 ft 317 kts 230°
2026-05-05 02:22 34.22879 -114.75198 23935 ft 318 kts 230°
2026-05-05 02:23 34.21420 -114.77205 23935 ft 318 kts 230°
2026-05-05 02:23 34.19957 -114.79214 23935 ft 318 kts 230°
2026-05-05 02:23 34.18494 -114.81219 23936 ft 318 kts 230°
2026-05-05 02:23 34.17030 -114.83224 23925 ft 318 kts 230°
2026-05-05 02:24 34.15565 -114.85232 23925 ft 319 kts 230°
2026-05-05 02:24 34.14102 -114.87240 23926 ft 318 kts 230°
2026-05-05 02:24 34.12640 -114.89248 23926 ft 318 kts 230°
2026-05-05 02:24 34.11177 -114.91255 23924 ft 319 kts 230°
2026-05-05 02:25 34.09713 -114.93263 23854 ft 318 kts 229°
2026-05-05 02:25 34.08250 -114.95266 23774 ft 318 kts 229°
2026-05-05 02:25 34.06784 -114.97273 23668 ft 319 kts 229°
2026-05-05 02:25 34.05317 -114.99273 23558 ft 319 kts 229°
2026-05-05 02:26 34.03845 -115.01278 23460 ft 319 kts 229°
2026-05-05 02:26 34.02377 -115.03276 23327 ft 318 kts 229°
2026-05-05 02:26 34.00913 -115.05273 23216 ft 317 kts 230°
2026-05-05 02:26 33.99454 -115.07264 23106 ft 317 kts 229°
2026-05-05 02:27 33.97994 -115.09260 22999 ft 318 kts 230°
2026-05-05 02:27 33.96636 -115.11349 22901 ft 317 kts 238°
2026-05-05 02:27 33.95697 -115.13747 22651 ft 320 kts 249°
2026-05-05 02:27 33.95200 -115.16370 22170 ft 321 kts 256°
2026-05-05 02:28 33.94787 -115.19004 21748 ft 319 kts 255°
2026-05-05 02:28 33.94370 -115.21622 21324 ft 318 kts 255°
2026-05-05 02:28 33.93948 -115.24230 20893 ft 317 kts 255°
2026-05-05 02:28 33.93527 -115.26832 20481 ft 316 kts 255°
2026-05-05 02:29 33.93106 -115.29427 20064 ft 316 kts 256°
2026-05-05 02:29 33.92682 -115.32023 19647 ft 315 kts 256°
2026-05-05 02:29 33.92259 -115.34612 19237 ft 315 kts 255°
2026-05-05 02:29 33.91835 -115.37201 18816 ft 315 kts 255°
2026-05-05 02:30 33.91409 -115.39790 18406 ft 315 kts 255°
2026-05-05 02:30 33.90984 -115.42375 17967 ft 314 kts 255°
2026-05-05 02:30 33.90560 -115.44953 17531 ft 313 kts 256°
2026-05-05 02:30 33.90140 -115.47515 17194 ft 313 kts 256°
2026-05-05 02:31 33.89719 -115.50081 16789 ft 311 kts 256°
2026-05-05 02:31 33.89301 -115.52626 16390 ft 310 kts 256°
2026-05-05 02:31 33.88881 -115.55170 15978 ft 309 kts 256°
2026-05-05 02:31 33.88464 -115.57701 15572 ft 307 kts 255°
2026-05-05 02:32 33.88048 -115.60215 15175 ft 306 kts 256°
2026-05-05 02:32 33.87829 -115.62765 14729 ft 309 kts 266°
2026-05-05 02:32 33.87831 -115.65364 14218 ft 312 kts 266°
2026-05-05 02:32 33.87838 -115.67987 13689 ft 315 kts 266°
2026-05-05 02:33 33.87843 -115.70627 13117 ft 316 kts 266°
2026-05-05 02:33 33.87847 -115.73273 12585 ft 316 kts 267°
2026-05-05 02:33 33.87851 -115.75919 12079 ft 316 kts 267°
2026-05-05 02:33 33.87851 -115.78603 11541 ft 316 kts 267°
2026-05-05 02:34 33.87850 -115.81251 11019 ft 316 kts 267°
2026-05-05 02:34 33.87847 -115.83893 10562 ft 314 kts 267°
2026-05-05 02:34 33.87843 -115.86501 10190 ft 307 kts 267°
2026-05-05 02:34 33.87838 -115.89010 10075 ft 293 kts 267°
2026-05-05 02:35 33.87835 -115.91410 9954 ft 282 kts 267°
2026-05-05 02:35 33.87832 -115.93736 9679 ft 276 kts 266°
2026-05-05 02:35 33.87560 -115.95993 9334 ft 271 kts 252°
2026-05-05 02:35 33.86768 -115.98052 8891 ft 273 kts 239°
2026-05-05 02:36 33.85768 -115.99984 8595 ft 270 kts 239°
2026-05-05 02:36 33.84784 -116.01892 8391 ft 267 kts 239°
2026-05-05 02:36 33.83809 -116.03788 8208 ft 264 kts 239°
2026-05-05 02:36 33.82858 -116.05636 8081 ft 256 kts 239°
2026-05-05 02:37 33.81938 -116.07431 7928 ft 249 kts 240°
2026-05-05 02:37 33.81042 -116.09186 7749 ft 245 kts 240°
2026-05-05 02:37 33.80152 -116.10924 7492 ft 244 kts 240°
2026-05-05 02:37 33.79263 -116.12658 7219 ft 243 kts 240°
2026-05-05 02:38 33.78376 -116.14388 6940 ft 243 kts 240°
2026-05-05 02:38 33.77491 -116.16111 6659 ft 242 kts 241°
2026-05-05 02:38 33.76609 -116.17825 6371 ft 241 kts 240°
2026-05-05 02:38 33.75730 -116.19530 6077 ft 240 kts 240°
2026-05-05 02:39 33.74855 -116.21228 5779 ft 238 kts 241°
2026-05-05 02:39 33.73984 -116.22919 5499 ft 238 kts 241°
2026-05-05 02:39 33.73118 -116.24604 5220 ft 236 kts 241°
2026-05-05 02:39 33.72261 -116.26280 4952 ft 234 kts 244°
2026-05-05 02:40 33.71586 -116.28035 4678 ft 230 kts 253°
2026-05-05 02:40 33.71188 -116.29869 4403 ft 225 kts 263°
2026-05-05 02:40 33.71058 -116.31723 4150 ft 221 kts 271°
2026-05-05 02:40 33.71184 -116.33532 3891 ft 213 kts 281°
2026-05-05 02:41 33.71532 -116.35198 3639 ft 200 kts 289°
2026-05-05 02:41 33.72046 -116.36703 3452 ft 187 kts 294°
2026-05-05 02:41 33.72560 -116.38091 3168 ft 176 kts 294°
2026-05-05 02:41 33.73018 -116.39322 2982 ft 153 kts 291°
2026-05-05 02:42 33.73427 -116.40428 2774 ft 140 kts 291°
2026-05-05 02:42 33.73814 -116.41479 2584 ft 138 kts 293°
2026-05-05 02:42 33.74284 -116.42470 2411 ft 135 kts 308°
2026-05-05 02:42 33.74994 -116.43222 2227 ft 137 kts 316°
2026-05-05 02:43 33.75738 -116.43931 2040 ft 141 kts 320°
2026-05-05 02:43 33.76497 -116.44657 1867 ft 136 kts 319°
2026-05-05 02:43 33.77230 -116.45360 1695 ft 135 kts 319°
2026-05-05 02:43 33.77932 -116.46092 1561 ft 135 kts 317°
2026-05-05 02:44 33.78629 -116.46851 1371 ft 137 kts 319°
2026-05-05 02:44 33.79318 -116.47577 3015 ft 95 kts 289°
2026-05-05 02:44 33.79173 -116.47853 355 ft 27 kts 356°
2026-05-05 02:44 33.79165 -116.47850 334 ft 17 kts 289°
2026-05-05 02:45 33.79092 -116.47844 426 ft 456 kts 268°
2026-05-05 02:45 33.77768 -116.45922 2126 ft 251 kts 272°
2026-05-05 02:45 33.78146 -116.47329 3692 ft 134 kts 323°
2026-05-05 02:45 33.77264 -116.45883 2368 ft 0 kts 346°
2026-05-05 02:46 33.77658 -116.46214 1482 ft 120 kts 343°
2026-05-05 02:46 33.78602 -116.46555 1596 ft 157 kts 322°
2026-05-05 02:46 33.79481 -116.47368 1586 ft 150 kts 316°
2026-05-05 02:46 33.80181 -116.48215 1182 ft 142 kts 317°
2026-05-05 02:47 33.80942 -116.48957 791 ft 138 kts 322°
2026-05-05 02:47 33.81680 -116.49614 526 ft 124 kts 322°
2026-05-05 02:47 33.82373 -116.50235 418 ft 122 kts 322°
2026-05-05 02:47 33.82942 -116.50745 424 ft 71 kts 324°
2026-05-05 02:48 33.83107 -116.50888 435 ft 2 kts 324°
2026-05-05 02:48 33.83161 -116.50935 430 ft 16 kts 323°
2026-05-05 02:48 33.83270 -116.51034 449 ft 22 kts 323°
2026-05-05 02:48 33.83330 -116.51146 452 ft 14 kts 242°
2026-05-05 02:49 33.83241 -116.51200 450 ft 17 kts 181°
2026-05-05 02:49 33.83136 -116.51131 447 ft 15 kts 143°
2026-05-05 02:49 33.83055 -116.51060 431 ft 16 kts 143°
2026-05-05 02:49 33.82957 -116.50971 436 ft 17 kts 144°
2026-05-05 02:50 33.82870 -116.50890 424 ft 17 kts 137°
2026-05-05 02:50 33.82767 -116.50793 425 ft 20 kts 144°
2026-05-05 02:50 33.82676 -116.50713 421 ft 16 kts 144°
2026-05-05 02:50 33.82617 -116.50682 426 ft 12 kts 193°
2026-05-05 02:51 33.82537 -116.50672 425 ft 15 kts 133°
2026-05-05 02:51 33.82444 -116.50594 420 ft 18 kts 145°
2026-05-05 02:51 33.82357 -116.50516 418 ft 11 kts 142°
2026-05-05 02:51 33.82291 -116.50464 419 ft 10 kts 168°
2026-05-05 02:52 33.82250 -116.50515 427 ft 8 kts 235°
2026-05-05 02:52 33.82205 -116.50572 420 ft 12 kts 202°
2026-05-05 02:52 33.82122 -116.50572 421 ft 13 kts 176°
2026-05-05 02:52 33.82024 -116.50569 421 ft 15 kts 180°
2026-05-05 02:53 33.81979 -116.50576 417 ft 4 kts 212°
2026-05-05 02:53 33.81967 -116.50611 427 ft 6 kts 262°
2026-05-05 02:53 33.81973 -116.50668 427 ft 8 kts 292°
2026-05-05 02:53 33.81983 -116.50690 421 ft 3 kts 305°
2026-05-05 02:54 33.82013 -116.50717 418 ft 7 kts 340°
2026-05-05 02:54 33.82061 -116.50720 418 ft 5 kts
2026-05-05 02:54 33.82081 -116.50720 417 ft 2 kts 359°
2026-05-05 02:54 33.82084 -116.50720 419 ft 0 kts 360°